• In Kazakhstan
  • List of Countries
  • For 7 days
  • Water Temperature
  • Satellite Maps
  • Weather Map
  • News
  • Weather Widgets
  • user-avatar
    Login

    Hourly Weather Encamp

    Today, 18 November, Sunday

    Time Temperature Precipitation Wind Pressure Humidity
    00:00 +1°C° 0.7 mm 3 mps 621 mmHg 91%
    01:00 0°C° 1 mm 3 mps 620 mmHg 91%
    02:00 0°C° 1 mm 3 mps 620 mmHg 90%
    03:00 0°C° 1 mm 3 mps 620 mmHg 90%
    04:00 0°C° 1.2 mm 3 mps 620 mmHg 90%
    05:00 0°C° 1.2 mm 3 mps 620 mmHg 90%
    06:00 0°C° 1.2 mm 3 mps 619 mmHg 90%
    07:00 0°C° 1.4 mm 3 mps 620 mmHg 90%
    08:00 0°C° 1.4 mm 3 mps 620 mmHg 89%
    09:00 0°C° 1.4 mm 3 mps 620 mmHg 89%
    10:00 +1°C° 1.2 mm 3 mps 620 mmHg 89%
    11:00 +1°C° 1.2 mm 3 mps 620 mmHg 88%
    12:00 +1°C° 1.2 mm 3 mps 620 mmHg 88%
    13:00 +1°C° 0.8 mm 3 mps 620 mmHg 88%
    14:00 +1°C° 0.8 mm 3 mps 619 mmHg 88%
    15:00 +1°C° 0.8 mm 3 mps 619 mmHg 87%
    16:00 +1°C° 0.4 mm 3 mps 619 mmHg 89%
    17:00 0°C° 0.4 mm 3 mps 619 mmHg 90%
    18:00 +1°C° 0.4 mm 2 mps 619 mmHg 92%
    19:00 -1°C° 0.2 mm 2 mps 618 mmHg 91%
    20:00 -1°C° 0.2 mm 2 mps 618 mmHg 91%
    21:00 -1°C° 0.2 mm 2 mps 618 mmHg 91%
    22:00 -1°C° 0 mm 2 mps 618 mmHg 91%
    23:00 -1°C° 0 mm 2 mps 617 mmHg 90%

    Tomorrow, 19 November, Monday

    Time Temperature Precipitation Wind Pressure Humidity
    00:00 0°C° 0 mm 1 mps 617 mmHg 89%
    01:00 0°C° 0 mm 1 mps 616 mmHg 89%
    02:00 0°C° 0 mm 1 mps 616 mmHg 88%
    03:00 0°C° 0 mm 1 mps 616 mmHg 87%
    04:00 0°C° 0 mm 1 mps 615 mmHg 87%
    05:00 0°C° 0 mm 1 mps 615 mmHg 87%
    06:00 0°C° 0 mm 1 mps 614 mmHg 86%
    07:00 +1°C° 0 mm 1 mps 615 mmHg 85%
    08:00 +2°C° 0 mm 1 mps 615 mmHg 83%
    09:00 +3°C° 0 mm 1 mps 615 mmHg 82%
    10:00 +3°C° 0.2 mm 1 mps 615 mmHg 81%
    11:00 +4°C° 0.2 mm 1 mps 615 mmHg 80%
    12:00 +4°C° 0.2 mm 1 mps 614 mmHg 79%
    13:00 +4°C° 0.7 mm 1 mps 614 mmHg 81%
    14:00 +3°C° 0.7 mm 1 mps 613 mmHg 83%
    15:00 +3°C° 0.7 mm 1 mps 613 mmHg 85%
    16:00 +2°C° 1.1 mm 1 mps 612 mmHg 88%
    17:00 +1°C° 1.1 mm 1 mps 612 mmHg 92%
    18:00 +1°C° 1.1 mm 1 mps 611 mmHg 95%
    19:00 0°C° 0.8 mm 1 mps 611 mmHg 95%
    20:00 0°C° 0.8 mm 1 mps 611 mmHg 96%
    21:00 0°C° 0.8 mm 1 mps 611 mmHg 96%
    22:00 0°C° 0.4 mm 1 mps 611 mmHg 96%
    23:00 0°C° 0.4 mm 1 mps 610 mmHg 96%

    Day after tomorrow, 20 November, Tuesday

    Time Temperature Precipitation Wind Pressure Humidity
    00:00 -1°C° 0.4 mm 1 mps 610 mmHg 96%
    01:00 -1°C° 0.1 mm 1 mps 610 mmHg 97%
    02:00 -1°C° 0.1 mm 1 mps 610 mmHg 97%
    03:00 -1°C° 0.1 mm 1 mps 610 mmHg 97%
    04:00 -2°C° 0 mm 1 mps 610 mmHg 97%
    05:00 -2°C° 0 mm 1 mps 610 mmHg 97%
    06:00 -2°C° 0 mm 1 mps 610 mmHg 97%
    07:00 -2°C° 0 mm 1 mps 610 mmHg 94%
    08:00 -1°C° 0 mm 1 mps 611 mmHg 91%
    09:00 -3°C° 0 mm 2 mps 611 mmHg 88%
    10:00 -2°C° 0 mm 2 mps 612 mmHg 83%
    11:00 -2°C° 0 mm 2 mps 612 mmHg 78%
    12:00 -1°C° 0 mm 2 mps 612 mmHg 73%
    13:00 -1°C° 0.1 mm 2 mps 612 mmHg 76%
    14:00 -2°C° 0.1 mm 2 mps 612 mmHg 78%
    15:00 -2°C° 0.1 mm 2 mps 611 mmHg 81%
    16:00 -2°C° 0.7 mm 2 mps 611 mmHg 84%
    17:00 -3°C° 0.7 mm 2 mps 611 mmHg 87%
    18:00 -3°C° 0.7 mm 2 mps 611 mmHg 90%
    19:00 -2°C° 0.3 mm 1 mps 611 mmHg 91%
    20:00 -2°C° 0.3 mm 1 mps 612 mmHg 92%
    21:00 -2°C° 0.3 mm 1 mps 612 mmHg 92%
    22:00 -2°C° 0 mm 1 mps 612 mmHg 93%
    23:00 -2°C° 0 mm 1 mps 612 mmHg 93%

    21 November, Wednesday

    Time Temperature Precipitation Wind Pressure Humidity
    00:00 -2°C° 0 mm 1 mps 612 mmHg 94%
    01:00 -2°C° 0 mm 1 mps 612 mmHg 93%
    02:00 -3°C° 0 mm 1 mps 612 mmHg 93%
    03:00 -3°C° 0 mm 1 mps 612 mmHg 93%
    04:00 -3°C° 0 mm 1 mps 612 mmHg 93%
    05:00 -3°C° 0 mm 1 mps 612 mmHg 93%
    06:00 -3°C° 0 mm 1 mps 613 mmHg 93%
    07:00 -2°C° 0 mm 1 mps 614 mmHg 91%
    08:00 -1°C° 0 mm 1 mps 615 mmHg 88%
    09:00 0°C° 0 mm 1 mps 616 mmHg 86%
    10:00 -1°C° 0 mm 2 mps 616 mmHg 82%
    11:00 -1°C° 0 mm 2 mps 617 mmHg 78%
    12:00 +1°C° 0 mm 2 mps 617 mmHg 74%
    13:00 +1°C° 0 mm 2 mps 617 mmHg 74%
    14:00 +1°C° 0 mm 2 mps 617 mmHg 74%
    15:00 +1°C° 0 mm 2 mps 617 mmHg 74%
    16:00 -2°C° 0 mm 2 mps 617 mmHg 78%
    17:00 -2°C° 0 mm 1 mps 616 mmHg 82%
    18:00 -4°C° 0 mm 1 mps 616 mmHg 86%
    19:00 -4°C° 0 mm 1 mps 616 mmHg 83%
    20:00 -4°C° 0 mm 1 mps 617 mmHg 81%
    21:00 -4°C° 0 mm 1 mps 617 mmHg 78%
    22:00 -4°C° 0 mm 1 mps 617 mmHg 79%
    23:00 -4°C° 0 mm 1 mps 617 mmHg 80%

    22 November, Thursday

    Time Temperature Precipitation Wind Pressure Humidity
    00:00 -6°C° 0 mm 2 mps 617 mmHg 81%
    01:00 -6°C° 0 mm 2 mps 617 mmHg 81%
    02:00 -6°C° 0 mm 2 mps 617 mmHg 82%
    03:00 -6°C° 0 mm 2 mps 617 mmHg 82%
    04:00 -5°C° 0 mm 2 mps 617 mmHg 83%
    05:00 -5°C° 0 mm 2 mps 617 mmHg 83%
    06:00 -5°C° 0 mm 2 mps 617 mmHg 83%
    07:00 -3°C° 0 mm 2 mps 618 mmHg 81%
    08:00 -2°C° 0 mm 2 mps 619 mmHg 79%
    09:00 -1°C° 0 mm 2 mps 619 mmHg 77%
    10:00 +1°C° 0 mm 2 mps 619 mmHg 76%
    11:00 +2°C° 0 mm 2 mps 619 mmHg 74%
    12:00 +3°C° 0 mm 2 mps 620 mmHg 73%
    13:00 +3°C° 0 mm 2 mps 619 mmHg 75%
    14:00 +2°C° 0 mm 2 mps 619 mmHg 76%
    15:00 +3°C° 0 mm 1 mps 619 mmHg 77%
    16:00 +2°C° 0 mm 1 mps 619 mmHg 79%
    17:00 0°C° 0 mm 1 mps 618 mmHg 81%
    18:00 -1°C° 0 mm 1 mps 618 mmHg 83%
    19:00 -2°C° 0 mm 1 mps 618 mmHg 82%
    20:00 -2°C° 0 mm 1 mps 618 mmHg 81%
    21:00 -3°C° 0 mm 1 mps 618 mmHg 79%
    22:00 -3°C° 0 mm 1 mps 618 mmHg 78%
    23:00 -3°C° 0 mm 1 mps 618 mmHg 77%

    23 November, Friday

    Time Temperature Precipitation Wind Pressure Humidity
    00:00 -3°C° 0 mm 1 mps 618 mmHg 76%
    01:00 -3°C° 0 mm 1 mps 618 mmHg 76%
    02:00 -3°C° 0 mm 1 mps 618 mmHg 76%
    03:00 -3°C° 0 mm 1 mps 618 mmHg 75%
    04:00 -3°C° 0 mm 1 mps 618 mmHg 75%
    05:00 -3°C° 0 mm 1 mps 619 mmHg 74%
    06:00 -4°C° 0 mm 1 mps 619 mmHg 74%
    07:00 -2°C° 0 mm 1 mps 620 mmHg 73%
    08:00 0°C° 0 mm 1 mps 621 mmHg 72%
    09:00 +1°C° 0 mm 1 mps 622 mmHg 71%
    10:00 +2°C° 0 mm 1 mps 622 mmHg 71%
    11:00 +3°C° 0 mm 1 mps 622 mmHg 71%
    12:00 +4°C° 0 mm 2 mps 623 mmHg 71%
    13:00 +3°C° 0 mm 2 mps 622 mmHg 72%
    14:00 +3°C° 0 mm 2 mps 622 mmHg 73%
    15:00 +4°C° 0 mm 1 mps 622 mmHg 74%
    16:00 +2°C° 0 mm 1 mps 621 mmHg 79%
    17:00 0°C° 0 mm 1 mps 621 mmHg 83%
    18:00 -2°C° 0 mm 1 mps 620 mmHg 88%
    19:00 -2°C° 0 mm 1 mps 620 mmHg 85%
    20:00 -3°C° 0 mm 1 mps 620 mmHg 82%
    21:00 -3°C° 0 mm 1 mps 621 mmHg 80%
    22:00 -3°C° 0 mm 1 mps 620 mmHg 77%
    23:00 -3°C° 0 mm 1 mps 620 mmHg 74%
    Show more